Regional Weather Roundup
Issued by NWS

Home | Current Version | Previous Version | Graphics & Text | Print | Product List | Glossary On
Versions: 1 2 3 4 5 6 7 8 9 10 11 12 13 14 15 16 17 18 19 20 21 22 23 24 25 26 27 28 29 30 31 32 33 34 35 36 37 38 39 40 41 42 43 44 45 46 47 48 49 50
000
ASUS43 KMPX 010401
RWRMN
WEATHER ROUNDUP FOR MINNESOTA
NATIONAL WEATHER SERVICE TWIN CITIES/CHANHASSEN MN
1100 PM CDT FRI JUL 31 2015


NOTE: "FAIR" INDICATES FEW OR NO CLOUDS BELOW 12,000 FEET WITH NO
SIGNIFICANT WEATHER AND/OR OBSTRUCTIONS TO VISIBILITY. N/A MEANS
CURRENT SKY AND/OR WEATHER CONDITIONS ARE NOT AVAILABLE.

MNZ060>063-068>070-010500-
   Twin Cities Metro

CITY           SKY/WX    TMP DP  RH WIND       PRES   REMARKS
TWIN CITIES    CLEAR     73  56  54 W7        30.00R
ST PAUL        CLEAR     72  56  57 W7        29.99S
CRYSTAL        CLEAR     73  56  54 W5        29.98S
BLAINE         CLEAR     73  57  56 W3        29.99S
LAKEVILLE      FAIR      64  57  77 SW3       30.01S
EDEN PRAIRIE   CLEAR     68  57  68 SW5       30.00R
SOUTH ST PAUL  CLEAR     71  55  58 SW3       29.99S
LAKE ELMO      FAIR      64  57  77 CALM      30.00S
$$
MNZ001>005-007-008-013>017-022>024-027-028-010500-
   Northwest Minnesota

CITY           SKY/WX    TMP DP  RH WIND       PRES   REMARKS
BEMIDJI        CLEAR     62  51  67 W5        29.99R
HALLOCK        CLEAR     63  55  77 W3        29.96R
ROSEAU         CLEAR     61  54  77 SW5       29.95S
WARROAD        CLEAR     63  54  72 W5        29.94F
THIEF RVR FALL CLEAR     59  54  82 CALM      29.98S
CROOKSTON      CLEAR     61  55  82 CALM      29.99R
FOSSTON        CLEAR     55  50  82 CALM      30.00S
DETROIT LAKES  CLEAR     64  59  82 W3        30.02R
MOORHEAD       CLEAR     66  57  72 CALM      30.00S
PARK RAPIDS    CLEAR     60  53  77 W6        30.00R
MAHNOMEN       FAIR      61  53  74 W5        30.00R
$$
MNZ006-009>011-018-025>026-010500-
   North Central Minnesota

CITY           SKY/WX    TMP DP  RH WIND       PRES   REMARKS
BAUDETTE       CLEAR     60  50  69 W7        29.94R
FLAG ISLAND    CLEAR     66  52  59 W8        29.91S
INTL FALLS     CLEAR     61  52  72 W5        29.91S
WASKISH        CLEAR     66  55  68 W7        29.96R
BIG FORK       CLEAR     61  46  59 CALM      29.96S
LONGVILLE      CLEAR     55  54  94 CALM      29.99R
GRAND RAPIDS   CLEAR     66  46  48 NW7       29.97S
CRANE LAKE     MOCLDY    57  55  94 N3        29.92R
ORR            CLEAR     63  46  55 W5        29.90S
COOK           CLEAR     57  50  77 CALM      29.93S
WALKER         FAIR      57  53  86 CALM      29.99R
$$
MNZ012-019>021-037-010500-
   Northeast Minnesota

CITY           SKY/WX    TMP DP  RH WIND       PRES   REMARKS
DULUTH         PTCLDY    62  49  62 W8        29.94S
ELY            CLOUDY    57  54  88 CALM      29.91F
HIBBING        CLEAR     65  47  52 W7        29.94S
EVELETH        CLEAR     59  50  72 W3        29.95S
DULUTH HARBOR  CLEAR     70  54  56 W12       29.93S
TWO HARBORS    CLEAR     63  54  72 CALM      29.91S
SILVER BAY     PTCLDY    57  55  94 CALM      29.90S
GRAND MARAIS     N/A     65  53  65 VRB5      29.84F
G MARAIS ARPRT   N/A     59  50  72 W6        29.90S
$$
MNZ029>031-032-039>041-046>048-054>057-064-010500-
   West Central Minnesota

CITY           SKY/WX    TMP DP  RH WIND       PRES   REMARKS
FERGUS FALLS   CLEAR     70  61  73 CALM      30.00R
WHEATON        CLEAR     63  59  88 CALM      30.01S
MORRIS         CLEAR     66  61  82 S5        30.00S
ALEXANDRIA     MOCLDY    66  60  81 SW5       30.03R
ELBOW LAKE     FAIR      65  62  90 S3        30.01R
WADENA         CLEAR     61  54  77 W3        30.00S
GLENWOOD       CLEAR     64  61  88 SW5       30.02S
APPLETON       CLEAR     72  61  68 S5        29.99F
BENSON         CLEAR     64  59  82 CALM      30.01R
ORTONVILLE     CLEAR     70  61  73 S6        30.00S
MADISON        CLEAR     66  61  82 S6        30.01S
WILLMAR        FAIR      66  61  82 CALM      30.02S
$$
MNZ033>034-036-042>043-049>051-058-059-010500-
   Central Minnesota

CITY           SKY/WX    TMP DP  RH WIND       PRES   REMARKS
ST CLOUD       MOCLDY    65  58  78 CALM      29.99S
SAUK CENTRE    CLOUDY    64  60  86 CALM      30.01S
PAYNESVILLE    CLEAR     61  58  88 SW3       30.02S
AITKIN         CLEAR     55  52  88 CALM      29.98R
PINE RIVER     CLEAR     57  52  82 CALM      30.03R
BRAINERD       CLEAR     59  54  83 CALM      30.00R
STAPLES        MOCLDY    63  55  77 CALM      30.00S
LONG PRAIRIE   CLOUDY    63  59  88 CALM      30.02R
LITTLE FALLS   PTCLDY    59  54  82 CALM      30.00R
LITCHFIELD     CLEAR     70  61  73 CALM      30.02S
BUFFALO        CLEAR     67  57  70 CALM      30.01S
$$
MNZ037-044-045-052-053-010500-
   East Central Minnesota

CITY           SKY/WX    TMP DP  RH WIND       PRES   REMARKS
PRINCETON      PTCLDY    63  57  82 CALM      30.00R
MORA           CLEAR     61  52  72 W3        30.00R
CAMBRIDGE      CLEAR     66  55  68 CALM      29.98R
RUSH CITY      PTCLDY    61  54  78 W3        29.99R
MOOSE LAKE     CLEAR     55  52  88 SW3       29.96R
HINCKLEY       FAIR      55  55 100 W5        29.98R
CLOQUET        CLEAR     63  46  55 W5        29.96R
MCGREGOR       CLEAR     59  52  77 CALM      29.99R
$$
MNZ071>073-080-081-089-090-097-098-010500-
   Southwest Minnesota

CITY           SKY/WX    TMP DP  RH WIND       PRES   REMARKS
MONTEVIDEO     CLEAR     66  55  68 SW3       30.02F
GRANITE FALLS  CLEAR     65  61  85 S3        30.03S
CANBY          CLEAR     69  60  73 SW3       30.02F
MARSHALL       CLEAR     70  59  68 SW9       30.04S
REDWOOD FALLS  CLEAR     68  60  75 S5        30.01S
OLIVIA         CLEAR     68  59  73 CALM      30.01S
PIPESTONE      CLEAR     66  61  82 SW3       30.07S
WINDOM         CLEAR     70  61  73 SW6       30.05S
WORTHINGTON    CLEAR     68  57  68 SW8       30.08R
JACKSON        CLEAR     68  59  73 SW7       30.07S
TRACY          CLEAR     70  63  78 SW8       30.04S
SLAYTON        CLEAR     66  62  85 CALM      30.07S
$$
MNZ065>067-074>077-082>085-091>093-010500-
   South Central Minnesota

CITY           SKY/WX    TMP DP  RH WIND       PRES   REMARKS
MANKATO        CLEAR     70  55  60 SW6       30.03S
NEW ULM        CLEAR     66  61  82 CALM      30.03R
ST JAMES       CLEAR     66  63  88 S6        30.05S
FAIRMONT       CLEAR     63  54  72 SW7       30.05S
GLENCOE        CLEAR     65  61  87 CALM      30.01S
FARIBAULT      CLEAR     63  59  88 CALM      30.03S
OWATONNA       CLEAR     63  57  82 SW7       30.04S
WASECA         CLEAR     61  59  94 CALM      30.05S
ALBERT LEA     CLEAR     66  63  88 CALM      30.06R
$$
MNZ078>079-086>088-094>096-010500-
   Southeast Minnesota

CITY           SKY/WX    TMP DP  RH WIND       PRES   REMARKS
ROCHESTER      CLEAR     63  58  83 W8        30.05R
RED WING       CLEAR     63  57  82 CALM      29.99R
STANTON        CLEAR     65  58  78 CALM      30.00S
DODGE CENTER   CLEAR     63  57  82 W7        30.05R
WINONA         CLEAR     64  59  82 CALM      30.00S
AUSTIN         CLEAR     66  57  72 SW3       30.05R
PRESTON        CLEAR     64  56  75 W8        30.05R
$$
ABBREVIATIONS USED IN REMARKS
   TC - TEMPERATURES IN CELSIUS
  WCI - WIND CHILL INDEX
   HX - HEAT INDEX
  VSB - VISIBILITY
$$


USA.gov is the U.S. government's official web portal to all federal, state and local government web resources and services.